Weather History for KCUL - September, 2013

Change the Weather History Date:

Thursday, September 19, 2013

  Actual Average (KEVV) Record (KEVV)
Temperature  
Mean Temperature 78 °F 68 °F  
Max Temperature 89 °F 80 °F 97 °F (1954)
Min Temperature 67 °F 55 °F 42 °F (1901)
Degree Days  
Heating Degree Days 0 2  
Month to date heating degree days 11  
Since 1 July heating degree days 12  
Cooling Degree Days 13 4  
Month to date cooling degree days 132  
Year to date cooling degree days 1331  
Growing Degree Days 28 (Base 50)    
Moisture  
Dew Point 70 °F    
Average Humidity 79    
Maximum Humidity 96    
Minimum Humidity 48    
Precipitation  
Precipitation 0.00 in 0.10 in 1.60 in (1970)
Month to date precipitation 1.92  
Year to date precipitation 32.84  
Snow  
Snow 0.00 in 0.00 in - ()
Month to date snowfall 0.0  
Since 1 July snowfall 0.0  
Since 1 September snowfall 0.0  
Snow Depth -    
Sea Level Pressure  
Sea Level Pressure 30.01 in    
Wind  
Wind Speed 5 mph (South)    
Max Wind Speed 13 mph    
Max Gust Speed 17 mph    
Visibility 7 miles    
Events      
T = Trace of Precipitation, MM = Missing Value Source: NWS Daily Summary

Daily Weather History Graph

Daily Weather History Graph

Search for Another Location

Airport or City:

Trip Planner

Search our weather history database for the weather conditions in past years. The results will help you decide how hot, cold, wet, or windy it might be!

Date:

Astronomy

Sep. 19, 2013 Rise Set
Actual Time 6:37 AM CDT 6:53 PM CDT
Civil Twilight 6:11 AM CDT 7:20 PM CDT
Nautical Twilight 5:40 AM CDT 7:50 PM CDT
Astronomical Twilight 5:09 AM CDT 8:22 PM CDT
Moon 6:53 PM CDT (9/19) 6:46 AM CDT (9/19)
Length of Visible Light 13h 08m
Length of Day
12h 15m
Full, 100% of the Moon is Illuminated
Sep 19
Full
Sep 26
Last Quarter
Oct 4
New
Oct 11
First Quarter
Oct 18
Full

Hourly Weather History & Observations

Time (CDT) Temp. Heat Index Dew Point Humidity Pressure Visibility Wind Dir Wind Speed Gust Speed Precip Events Conditions
12:15 AM 68.9 °F - 66.7 °F 93% 30.04 in 3.0 mi SSE 3.5 mph - N/A   Clear
12:35 AM 69.8 °F - 68.0 °F 94% 30.04 in 4.0 mi Calm Calm - N/A   Clear
12:55 AM 70.0 °F - 68.2 °F 94% 30.04 in 4.0 mi South 3.5 mph - N/A   Clear
1:15 AM 70.0 °F - 68.2 °F 94% 30.05 in 4.0 mi Calm Calm - N/A   Clear
1:35 AM 68.9 °F - 67.1 °F 94% 30.05 in 2.5 mi Calm Calm - N/A   Clear
1:55 AM 68.7 °F - 67.1 °F 95% 30.05 in 2.5 mi SSE 4.6 mph - N/A   Clear
2:15 AM 68.4 °F - 66.7 °F 95% 30.04 in 2.5 mi South 3.5 mph - N/A   Clear
2:35 AM 68.4 °F - 66.9 °F 95% 30.04 in 2.5 mi SE 3.5 mph - N/A   Clear
2:55 AM 68.0 °F - 66.4 °F 95% 30.04 in 2.5 mi SE 3.5 mph - N/A   Clear
3:15 AM 67.6 °F - 65.8 °F 94% 30.04 in 1.8 mi ESE 4.6 mph - N/A   Mist
3:35 AM 68.0 °F - 66.2 °F 94% 30.04 in 2.0 mi SSE 5.8 mph - N/A   Clear
3:55 AM 68.0 °F - 66.4 °F 95% 30.04 in 2.0 mi South 4.6 mph - N/A   Clear
4:15 AM 68.4 °F - 66.9 °F 95% 30.03 in 3.0 mi South 5.8 mph - N/A   Clear
4:35 AM 69.1 °F - 67.6 °F 95% 30.04 in 3.0 mi South 4.6 mph - N/A   Clear
4:55 AM 68.4 °F - 66.9 °F 95% 30.04 in 2.5 mi South 3.5 mph - N/A   Clear
5:15 AM 68.0 °F - 66.2 °F 94% 30.04 in 2.0 mi Calm Calm - N/A   Clear
5:35 AM 68.2 °F - 66.7 °F 95% 30.04 in 2.0 mi Calm Calm - N/A   Clear
5:55 AM 67.6 °F - 66.2 °F 95% 30.05 in 2.5 mi Calm Calm - N/A   Scattered Clouds
6:15 AM 68.0 °F - 66.4 °F 95% 30.05 in 2.5 mi Calm Calm - N/A   Mostly Cloudy
6:35 AM 68.0 °F - 66.6 °F 95% 30.05 in 2.5 mi South 4.6 mph - N/A   Clear
6:55 AM 68.0 °F - 66.6 °F 95% 30.05 in 1.8 mi Calm Calm - N/A   Mist
7:15 AM 68.2 °F - 66.7 °F 95% 30.06 in 1.8 mi Calm Calm - N/A   Scattered Clouds
7:35 AM 70.2 °F - 68.9 °F 96% 30.06 in 2.5 mi South 5.8 mph - N/A   Mostly Cloudy
7:55 AM 71.2 °F - 69.4 °F 94% 30.06 in 3.0 mi South 5.8 mph - N/A   Scattered Clouds
8:15 AM 72.5 °F - 70.0 °F 92% 30.06 in 4.0 mi South 4.6 mph - N/A   Clear
8:35 AM 74.1 °F - 71.1 °F 90% 30.06 in 4.0 mi South 5.8 mph - N/A   Scattered Clouds
8:55 AM 75.2 °F - 71.1 °F 87% 30.06 in 5.0 mi South 6.9 mph - N/A   Scattered Clouds
9:15 AM 75.6 °F - 70.9 °F 85% 30.06 in 7.0 mi South 8.1 mph - N/A   Clear
9:35 AM 76.1 °F - 71.1 °F 84% 30.06 in 7.0 mi South 10.4 mph - N/A   Clear
9:55 AM 77.2 °F - 70.9 °F 81% 30.06 in 7.0 mi SSW 10.4 mph - N/A   Clear
10:15 AM 79.2 °F - 71.4 °F 77% 30.06 in 10.0 mi SSW 9.2 mph - N/A   Clear
10:35 AM 79.9 °F - 71.2 °F 75% 30.06 in 10.0 mi SSW 10.4 mph - N/A   Clear
10:55 AM 81.7 °F 86.5 °F 72.1 °F 73% 30.06 in 10.0 mi SSW 9.2 mph - N/A   Clear
11:15 AM 82.8 °F 87.4 °F 71.2 °F 68% 30.06 in 10.0 mi SW 10.4 mph - N/A   Clear
11:35 AM 83.5 °F 88.8 °F 71.8 °F 68% 30.05 in 10.0 mi SW 11.5 mph - N/A   Clear
11:55 AM 85.1 °F 91.1 °F 72.1 °F 65% 30.04 in 10.0 mi SSW 12.7 mph 17.3 mph N/A   Clear
12:15 PM 86.9 °F 93.3 °F 71.8 °F 61% 30.04 in 10.0 mi SSW 12.7 mph - N/A   Clear
12:35 PM 87.4 °F 93.5 °F 71.4 °F 59% 30.03 in 10.0 mi SW 11.5 mph 17.3 mph N/A   Clear
1:15 PM 88.0 °F 93.4 °F 70.7 °F 56% 30.02 in 10.0 mi SSW 11.5 mph - N/A   Clear
1:35 PM 88.5 °F 94.0 °F 70.3 °F 55% 30.01 in 10.0 mi SW 8.1 mph - N/A   Clear
1:55 PM 88.7 °F 93.0 °F 69.1 °F 52% 30.01 in 10.0 mi SSW 12.7 mph 17.3 mph N/A   Clear
2:15 PM 88.7 °F 94.3 °F 70.5 °F 55% 30.00 in 10.0 mi SSW 8.1 mph - N/A   Scattered Clouds
2:35 PM 88.7 °F 93.0 °F 69.3 °F 52% 30.00 in 10.0 mi South 9.2 mph - N/A   Scattered Clouds
2:55 PM 89.1 °F 93.3 °F 68.9 °F 51% 29.99 in 10.0 mi SSW 8.1 mph 17.3 mph N/A   Clear
3:15 PM 89.2 °F 94.5 °F 70.2 °F 53% 29.98 in 10.0 mi SSW 6.9 mph - N/A   Clear
3:35 PM 88.9 °F 91.8 °F 67.1 °F 48% 29.98 in 10.0 mi SSW 10.4 mph - N/A   Clear
3:55 PM 88.5 °F 93.1 °F 69.3 °F 53% 29.97 in 10.0 mi SSW 10.4 mph - N/A   Clear
4:15 PM 88.2 °F 93.7 °F 70.9 °F 56% 29.97 in 10.0 mi South 11.5 mph - N/A   Clear
4:35 PM 86.4 °F 91.4 °F 70.3 °F 59% 29.96 in 10.0 mi South 9.2 mph - N/A   Clear
4:55 PM 87.8 °F 93.4 °F 71.1 °F 57% 29.96 in 10.0 mi South 8.1 mph - N/A   Clear
5:15 PM 87.3 °F 92.0 °F 69.6 °F 56% 29.95 in 10.0 mi South 10.4 mph - N/A   Clear
5:35 PM 86.5 °F 91.0 °F 69.8 °F 57% 29.95 in 10.0 mi South 11.5 mph - N/A   Clear
5:55 PM 85.5 °F 90.1 °F 70.0 °F 60% 29.94 in 10.0 mi South 11.5 mph - N/A   Clear
6:15 PM 84.2 °F 88.4 °F 69.8 °F 62% 29.94 in 10.0 mi South 9.2 mph - N/A   Clear
6:35 PM 82.6 °F 86.6 °F 70.2 °F 66% 29.93 in 10.0 mi South 9.2 mph - N/A   Clear
6:55 PM 81.9 °F 85.6 °F 70.0 °F 67% 29.93 in 10.0 mi South 9.2 mph - N/A   Clear
7:15 PM 80.8 °F 84.4 °F 70.7 °F 71% 29.93 in 10.0 mi SSE 9.2 mph - N/A   Clear
7:35 PM 79.9 °F - 71.6 °F 76% 29.94 in 10.0 mi SSE 9.2 mph - N/A   Clear
7:55 PM 79.2 °F - 71.6 °F 78% 29.96 in 10.0 mi South 6.9 mph - N/A   Clear
8:15 PM 77.9 °F - 71.6 °F 81% 29.96 in 10.0 mi SSE 6.9 mph - N/A   Clear
8:35 PM 77.0 °F - 71.6 °F 83% 29.96 in 10.0 mi SSE 5.8 mph - N/A   Clear
8:55 PM 77.2 °F - 71.4 °F 82% 29.97 in 10.0 mi SSE 6.9 mph - N/A   Clear
9:15 PM 76.1 °F - 71.2 °F 85% 29.97 in 10.0 mi SSE 5.8 mph - N/A   Clear
9:35 PM 75.6 °F - 71.6 °F 87% 29.97 in 10.0 mi SSE 4.6 mph - N/A   Clear
9:55 PM 76.1 °F - 71.6 °F 86% 29.97 in 10.0 mi South 5.8 mph - N/A   Clear
10:15 PM 76.1 °F - 71.6 °F 86% 29.97 in 10.0 mi South 6.9 mph - N/A   Clear
10:35 PM 76.1 °F - 71.6 °F 86% 29.97 in 10.0 mi SSE 8.1 mph - N/A   Clear
10:55 PM 76.1 °F - 71.6 °F 86% 29.97 in 10.0 mi SSE 8.1 mph - N/A   Clear
11:15 PM 75.6 °F - 71.2 °F 86% 29.97 in 10.0 mi SSE 5.8 mph - N/A   Clear
11:35 PM 74.7 °F - 71.1 °F 88% 29.97 in 10.0 mi SSE 5.8 mph - N/A   Clear
11:55 PM 73.9 °F - 70.7 °F 90% 29.97 in 10.0 mi South 4.6 mph - N/A   Clear